GW5162 Weather Reports


Display with metric or nautical units.
time (UTC)temp
F
wind
direction
speed
MPH
gust
MPH
rain 1hr
in
rain 24hr
in
rain mn
in
humidity
%
barometer
mb
20260504231317 53 28 1.0 1.0 0.07 0.08 0.08 78 1009.4
20260504230813 53 164 1.0 1.0 0.12 0.08 0.08 76 1009.3
20260504230312 53 85 0.0 0.0 0.17 0.07 0.07 73 1009.4
20260504225810 54 19 4.0 6.0 0.12 0.06 0.06 69 1009.4
20260504225306 56 331 3.0 5.0 0.07 0.04 0.04 64 1009.3
20260504224803 59 328 2.0 2.0 0.07 0.04 0.04 55 1009.0
20260504224301 61 293 1.0 1.0 0.00 0.03 0.03 48 1008.8
20260504223757 61 308 2.0 2.0 0.00 0.03 0.03 42 1008.7
20260504223252 62 358 5.0 6.0 0.00 0.03 0.03 41 1008.6
20260504222749 62 61 2.0 2.0 0.00 0.03 0.03 41 1008.3
20260504222246 62 30 1.0 2.0 0.00 0.03 0.03 41 1008.2
20260504221744 62 11 3.0 3.0 0.00 0.03 0.03 41 1008.2
20260504221241 62 27 5.0 7.0 0.00 0.03 0.03 39 1008.1
20260504220738 62 347 3.0 5.0 0.00 0.03 0.03 39 1007.6
20260504220235 62 330 2.0 5.0 0.00 0.03 0.03 43 1007.5
20260504215732 62 350 4.0 5.0 0.00 0.03 0.03 43 1007.2
20260504215228 62 14 1.0 1.0 0.00 0.03 0.03 45 1007.4
20260504214724 62 8 2.0 2.0 0.00 0.03 0.03 45 1007.5
20260504214221 62 16 3.0 5.0 0.00 0.03 0.03 44 1007.6
20260504213718 62 48 6.0 9.0 0.00 0.03 0.03 47 1008.0
20260504213214 63 57 2.0 5.0 0.00 0.03 0.03 47 1008.1
20260504212711 61 132 5.0 7.0 0.00 0.03 0.03 44 1008.8
20260504212208 60 28 1.0 1.0 0.00 0.03 0.03 50 1008.9
20260504211705 59 91 3.0 3.0 0.00 0.03 0.03 49 1008.9
20260504211201 58 18 1.0 1.0 0.00 0.03 0.03 49 1009.4
20260504210659 59 15 5.0 7.0 0.00 0.03 0.03 49 1009.4
20260504210155 58 35 5.0 8.0 0.00 0.03 0.03 52 1009.4
20260504205653 57 32 2.0 2.0 0.05 0.03 0.03 57 1009.1
20260504205150 58 43 4.0 7.0 0.19 0.03 0.03 54 1009.0
20260504204649 60 13 2.0 2.0 0.14 0.02 0.02 51 1008.9
20260504204147 62 13 4.0 7.0 0.00 0.00 0.00 39 1008.8
20260504203645 62 318 2.0 5.0 0.00 0.00 0.00 40 1008.6
20260504203143 62 341 6.0 10.0 0.00 0.00 0.00 43 1008.2
20260504202642 64 6 4.0 6.0 0.00 0.00 0.00 37 1007.6
20260504202140 64 341 13.0 18.0 0.00 0.00 0.00 33 1007.4
20260504201636 65 49 8.0 13.0 0.00 0.00 0.00 32 1007.2
20260504201134 68 7 12.0 18.0 0.00 0.00 0.00 29 1007.3
20260504200631 70 31 3.0 3.0 0.00 0.00 0.00 24 1007.2
20260504200128 71 74 3.0 6.0 0.00 0.00 0.00 24 1006.9
20260504195624 72 24 2.0 2.0 0.00 0.00 0.00 23 1007.0
20260504195120 72 12 1.0 1.0 0.00 0.00 0.00 24 1007.2
20260504194617 73 340 2.0 2.0 0.00 0.00 0.00 24 1006.8
20260504194113 73 7 3.0 5.0 0.00 0.00 0.00 25 1007.0
20260504193609 75 348 1.0 2.0 0.00 0.00 0.00 23 1007.2
20260504193108 75 15 4.0 5.0 0.00 0.00 0.00 23 1007.2
20260504192606 74 316 2.0 3.0 0.00 0.00 0.00 24 1007.3
20260504192104 74 313 3.0 5.0 0.00 0.00 0.00 24 1007.2
20260504191602 75 310 4.0 7.0 0.00 0.00 0.00 23 1007.2
20260504191057 74 236 4.0 6.0 0.00 0.00 0.00 24 1006.9
20260504190554 72 253 3.0 3.0 0.00 0.00 0.00 24 1007.3
20260504190050 72 186 5.0 7.0 0.00 0.00 0.00 24 1007.2
20260504185547 72 0 7.0 11.0 0.00 0.00 0.00 24 1007.4
20260504185043 73 333 7.0 9.0 0.00 0.00 0.00 23 1007.2
20260504184539 73 324 7.0 9.0 0.00 0.00 0.00 23 1007.4
20260504184034 74 258 4.0 6.0 0.00 0.00 0.00 23 1007.3
20260504183532 73 333 8.0 10.0 0.00 0.00 0.00 24 1007.6
20260504183030 73 334 7.0 10.0 0.00 0.00 0.00 23 1007.7
20260504182526 73 293 4.0 7.0 0.00 0.00 0.00 24 1007.5
20260504182024 72 325 3.0 3.0 0.00 0.00 0.00 24 1007.6
20260504181521 72 261 3.0 5.0 0.00 0.00 0.00 25 1007.6
20260504181019 72 306 3.0 3.0 0.00 0.00 0.00 25 1008.1
20260504180518 71 278 4.0 5.0 0.00 0.00 0.00 26 1008.2
20260504180016 71 277 4.0 5.0 0.00 0.00 0.00 26 1008.2
20260504175513 70 209 2.0 3.0 0.00 0.00 0.00 26 1008.2
20260504175010 69 282 6.0 9.0 0.00 0.00 0.00 26 1008.3
20260504174508 70 215 3.0 5.0 0.00 0.00 0.00 27 1008.3
20260504174005 70 217 1.0 1.0 0.00 0.00 0.00 27 1008.6
20260504173501 69 174 2.0 2.0 0.00 0.00 0.00 28 1008.6
20260504172959 68 254 2.0 2.0 0.00 0.00 0.00 29 1008.8
20260504172454 68 147 2.0 5.0 0.00 0.00 0.00 29 1008.3
20260504171951 67 219 1.0 1.0 0.00 0.00 0.00 29 1008.7
20260504171448 66 257 2.0 2.0 0.00 0.00 0.00 30 1008.8
20260504170945 66 224 1.0 2.0 0.00 0.00 0.00 31 1008.6
20260504170441 66 200 5.0 6.0 0.00 0.00 0.00 30 1008.8
20260504160401 65 236 1.0 2.0 0.00 0.00 0.00 30 1008.8
20260504150825 64 291 2.0 2.0 0.00 0.00 0.00 29 1008.7
20260504150322 64 129 2.0 2.0 0.00 0.00 0.00 29 1008.9
20260504141252 53 75 0.0 0.0 0.00 0.00 0.00 48 1008.9
20260504140748 53 46 0.0 0.0 0.00 0.00 0.00 50 1009.0
20260504140244 51 21 0.0 0.0 0.00 0.00 0.00 51 1009.0
20260504130713 45 16 0.0 0.0 0.00 0.00 0.00 50 1009.3
20260504130209 44 186 0.0 0.0 0.00 0.00 0.00 50 1008.9
20260504120133 40 355 0.0 0.0 0.00 0.00 0.00 58 1008.9
20260504110600 40 323 0.0 0.0 0.00 0.00 0.00 56 1009.4
20260504100522 40 135 0.0 0.0 0.00 0.00 0.00 60 1009.6
20260504081915 44 242 0.0 0.0 0.00 0.00 0.00 52 1010.1
20260504081412 45 245 0.0 0.0 0.00 0.00 0.00 51 1010.3
20260504080908 46 287 0.0 0.0 0.00 0.00 0.00 53 1010.3
20260504080405 46 285 0.0 0.0 0.00 0.00 0.00 53 1010.4
20260504070332 50 194 0.0 0.0 0.00 0.00 0.00 41 1010.8
20260504050721 59 332 4.0 5.0 0.00 0.00 0.00 34 1010.7
20260504050218 59 352 4.0 6.0 0.00 0.00 0.00 33 1010.9
20260504045715 59 11 5.0 6.0 0.00 0.00 0.00 33 1010.9
20260504045215 60 14 6.0 9.0 0.00 0.00 0.00 32 1010.8
20260504044713 61 48 0.0 0.0 0.00 0.00 0.00 30 1010.8
20260504044210 62 39 1.0 2.0 0.00 0.00 0.00 29 1010.8
20260504043707 62 296 2.0 3.0 0.00 0.00 0.00 28 1010.9
20260504043204 62 11 3.0 5.0 0.00 0.00 0.00 26 1010.8
20260504042701 61 30 2.0 2.0 0.00 0.00 0.00 29 1010.4
20260504042158 60 17 3.0 3.0 0.00 0.00 0.00 29 1010.7
20260504041654 60 320 2.0 2.0 0.00 0.00 0.00 29 1010.5
20260504041149 60 300 1.0 1.0 0.00 0.00 0.00 30 1010.4
20260504040647 60 299 0.0 1.0 0.00 0.00 0.00 30 1010.7
20260504040144 61 310 0.0 1.0 0.00 0.00 0.00 29 1010.3
20260504035640 61 313 2.0 2.0 0.00 0.00 0.00 29 1010.5
20260504035137 60 309 1.0 2.0 0.00 0.00 0.00 29 1010.7
20260504034635 61 306 1.0 1.0 0.00 0.00 0.00 29 1010.5
20260504034132 61 311 0.0 1.0 0.00 0.00 0.00 29 1010.7
20260504033630 61 290 0.0 1.0 0.00 0.00 0.00 29 1010.5
20260504033127 61 304 1.0 1.0 0.00 0.00 0.00 29 1010.5
20260504032624 61 338 1.0 1.0 0.00 0.00 0.00 29 1010.4
20260504032120 60 295 0.0 1.0 0.00 0.00 0.00 31 1010.5
20260504031618 57 187 0.0 0.0 0.00 0.00 0.00 37 1010.7
20260504031114 57 295 0.0 0.0 0.00 0.00 0.00 41 1010.4
20260504030611 57 245 0.0 0.0 0.00 0.00 0.00 42 1010.2
20260504030108 57 317 0.0 0.0 0.00 0.00 0.00 44 1010.5
20260504025604 58 257 0.0 0.0 0.00 0.00 0.00 44 1010.4
20260504025101 59 199 0.0 0.0 0.00 0.00 0.00 40 1010.3
20260504024558 59 198 0.0 0.0 0.00 0.00 0.00 36 1010.3
20260504024055 60 200 0.0 0.0 0.00 0.00 0.00 32 1010.2
20260504023551 61 206 0.0 0.0 0.00 0.00 0.00 32 1010.0
20260504023047 60 258 0.0 0.0 0.00 0.00 0.00 34 1010.3
20260504022543 61 288 0.0 0.0 0.00 0.00 0.00 33 1010.2
20260504022040 62 259 0.0 0.0 0.00 0.00 0.00 32 1010.3
20260504021537 63 200 0.0 0.0 0.00 0.00 0.00 31 1010.3
20260504021034 64 243 0.0 0.0 0.00 0.00 0.00 29 1010.0
20260504020531 64 288 0.0 0.0 0.00 0.00 0.00 28 1010.0
20260504020028 65 289 0.0 0.0 0.00 0.00 0.00 28 1010.1
20260504015524 65 244 0.0 0.0 0.00 0.00 0.00 28 1009.8
20260504015020 66 255 0.0 0.0 0.00 0.00 0.00 27 1010.0
20260504014516 66 284 0.0 1.0 0.00 0.00 0.00 26 1009.6
20260504014014 67 313 1.0 1.0 0.00 0.00 0.00 25 1010.0
20260504013512 67 301 1.0 1.0 0.00 0.00 0.00 26 1010.1
20260504013008 67 254 0.0 1.0 0.00 0.00 0.00 26 1010.0
20260504012506 68 279 1.0 1.0 0.00 0.00 0.00 25 1009.8
20260504012004 68 304 1.0 2.0 0.00 0.00 0.00 25 1010.0
20260504011500 68 266 0.0 0.0 0.00 0.00 0.00 25 1010.1
20260504010955 68 320 0.0 1.0 0.00 0.00 0.00 24 1010.1
20260504010452 69 166 0.0 1.0 0.00 0.00 0.00 24 1010.1
20260504005947 69 174 1.0 2.0 0.00 0.00 0.00 23 1010.2
20260504005445 69 215 3.0 5.0 0.00 0.00 0.00 23 1010.4
20260504004942 69 269 5.0 6.0 0.00 0.00 0.00 23 1010.2
20260504004440 69 242 2.0 2.0 0.00 0.00 0.00 24 1010.3
20260504003937 69 247 3.0 3.0 0.00 0.00 0.00 23 1010.2
20260504003433 69 242 2.0 3.0 0.00 0.00 0.00 24 1010.4
20260504002930 69 255 1.0 2.0 0.00 0.00 0.00 23 1010.2
20260504002427 70 169 3.0 5.0 0.00 0.00 0.00 21 1010.3
20260504001924 70 202 1.0 5.0 0.00 0.00 0.00 22 1010.7
20260504001421 71 313 2.0 3.0 0.00 0.00 0.00 21 1010.7
20260504000918 71 265 2.0 2.0 0.00 0.00 0.00 22 1010.7
20260504000416 71 194 2.0 3.0 0.00 0.00 0.00 21 1010.8
20260503235912 72 270 5.0 6.0 0.00 0.00 0.00 20 1010.8
20260503235410 72 144 0.0 0.0 0.00 0.00 0.00 18 1010.5
20260503234908 71 340 1.0 1.0 0.00 0.00 0.00 18 1010.5
20260503234405 70 189 0.0 1.0 0.00 0.00 0.00 20 1011.0
20260503233903 69 197 2.0 3.0 0.00 0.00 0.00 21 1011.1
20260503233359 69 56 2.0 2.0 0.00 0.00 0.00 22 1011.1
20260503232855 70 14 3.0 3.0 0.00 0.00 0.00 20 1011.1
20260503232353 70 338 4.0 6.0 0.00 0.00 0.00 19 1011.1
20260503231850 70 301 5.0 6.0 0.00 0.00 0.00 19 1011.3